Weather History for La Junta, CO

Change the Weather History Date:

Tuesday, November 20, 2012

  Actual Average Record
Temperature  
Mean Temperature 47 °F 39 °F  
Max Temperature 69 °F 53 °F 79 °F (1955)
Min Temperature 24 °F 24 °F 6 °F (1975)
Degree Days  
Heating Degree Days 18 26  
Month to date heating degree days 344 432  
Since 1 July heating degree days 741 854  
Cooling Degree Days 0 0  
Month to date cooling degree days 0 0  
Year to date cooling degree days 1733 1226  
Moisture  
Dew Point 15 °F    
Average Humidity 34    
Maximum Humidity 55    
Minimum Humidity 13    
Precipitation  
Precipitation 0.00 in 0.01 in 0.38 in (1992)
Month to date precipitation T 0.28  
Year to date precipitation 5.52 11.10  
Sea Level Pressure  
Sea Level Pressure 30.14 in    
Wind  
Wind Speed 8 mph (SW)    
Max Wind Speed 16 mph    
Max Gust Speed 18 mph    
Visibility 10 miles    
Events      
T = Trace of Precipitation, MM = Missing Value Source: NWS Daily Summary

Daily Weather History Graph

Daily Weather History Graph

Search for Another Location

Airport:

Trip Planner

Search our weather history database for the weather conditions in past years. The results will help you decide how hot, cold, wet, or windy it might be!

Date:

Astronomy

Nov. 20, 2012 Rise Set
Actual Time 6:40 AM MST 4:38 PM MST
Civil Twilight 6:12 AM MST 5:07 PM MST
Nautical Twilight 5:40 AM MST 5:39 PM MST
Astronomical Twilight 5:08 AM MST 6:10 PM MST
Moon 12:19 PM MST (11/20) No Moon Set
Length of Visible Light 10h 54m
Length of Day
9h 57m
First Quarter, 52% of the Moon is Illuminated
Nov 20
First Quarter
Nov 28
Full
Dec 6
Last Quarter
Dec 13
New
Dec 19
First Quarter

Hourly Weather History & Observations

Time (MST) Temp. Windchill Dew Point Humidity Pressure Visibility Wind Dir Wind Speed Gust Speed Precip Events Conditions
12:00 AM 35.6 °F 29.2 °F 12.2 °F 38% 30.23 in 10.0 mi WNW 8.1 mph - N/A   Clear
12:53 AM 35.1 °F 32.2 °F 17.1 °F 48% 30.17 in 10.0 mi South 3.5 mph - N/A   Clear
1:53 AM 30.0 °F 23.2 °F 14.0 °F 51% 30.18 in 10.0 mi WSW 6.9 mph - N/A   Clear
2:53 AM 32.0 °F 26.4 °F 12.0 °F 44% 30.18 in 10.0 mi WSW 5.8 mph - N/A   Clear
3:53 AM 30.9 °F - 12.9 °F 47% 30.19 in 10.0 mi Calm Calm - N/A   Clear
4:53 AM 25.0 °F 12.6 °F 10.9 °F 55% 30.21 in 10.0 mi West 15.0 mph - N/A   Clear
5:53 AM 30.0 °F 20.5 °F 16.0 °F 56% 30.22 in 10.0 mi West 11.5 mph - N/A   Clear
6:53 AM 30.0 °F 21.1 °F 15.1 °F 54% 30.23 in 10.0 mi West 10.4 mph - N/A   Clear
7:53 AM 33.1 °F 26.9 °F 16.0 °F 50% 30.25 in 10.0 mi West 6.9 mph - N/A   Clear
8:53 AM 45.0 °F 39.3 °F 19.0 °F 36% 30.25 in 10.0 mi West 11.5 mph - N/A   Clear
9:53 AM 48.9 °F - 18.0 °F 29% 30.23 in 10.0 mi Variable 5.8 mph - N/A   Clear
10:53 AM 55.0 °F - 18.0 °F 23% 30.19 in 10.0 mi Variable 4.6 mph - N/A   Clear
11:53 AM 60.1 °F - 18.0 °F 20% 30.17 in 10.0 mi Calm Calm - N/A   Clear
12:53 PM 63.0 °F - 17.1 °F 17% 30.12 in 10.0 mi Calm Calm - N/A   Clear
1:53 PM 66.9 °F - 17.1 °F 15% 30.09 in 10.0 mi East 8.1 mph - N/A   Clear
2:53 PM 68.0 °F - 16.0 °F 14% 30.06 in 10.0 mi SE 10.4 mph - N/A   Clear
3:53 PM 66.0 °F - 16.0 °F 15% 30.06 in 10.0 mi ESE 9.2 mph - N/A   Clear
4:53 PM 59.0 °F - 16.0 °F 19% 30.09 in 10.0 mi East 5.8 mph - N/A   Clear
5:53 PM 54.0 °F - 15.1 °F 22% 30.09 in 10.0 mi SSE 5.8 mph - N/A   Clear
6:53 PM 53.1 °F - 12.0 °F 20% 30.09 in 10.0 mi South 6.9 mph - N/A   Clear
7:53 PM 54.0 °F - 12.9 °F 20% 30.08 in 10.0 mi SSW 9.2 mph - N/A   Clear
8:53 PM 51.1 °F - 12.0 °F 21% 30.06 in 10.0 mi SSW 12.7 mph - N/A   Clear
9:53 PM 48.0 °F - 10.9 °F 22% 30.05 in 10.0 mi SSW 11.5 mph - N/A   Clear
10:53 PM 48.9 °F - 10.9 °F 22% 30.02 in 10.0 mi SSW 13.8 mph - N/A   Clear
11:53 PM 44.1 °F 37.7 °F 10.0 °F 25% 30.02 in 10.0 mi West 12.7 mph - N/A   Clear